Japanese version Home page |
Updated on February 20, 2021 |
Profile
|
Orbital ElementsEpoch 2015 Feb. 27.0 TT = JDT 2457080.5 T 2015 Feb. 22.87878 TT Rudenko q 1.1528673 (2000.0) P Q n 0.04826115 Peri. 249.62149 +0.87944844 +0.45808043 a 7.4714391 Node 277.07500 +0.47068601 -0.79644075 e 0.8456967 Incl. 172.51032 +0.07088813 -0.39477138 P 20.4 From 57 observations 2015 Jan. 8-June 12, mean residual 0".4.
|
Magnitudes GraphH = 18.7 G = 0.15
|
The orbital elements are published on M.P.E.C. 2021-B143.
|